Austin, MN

2:28 PM CDT on October 22, 2017 (GMT -0500)
Austin Municipal

Weather History for KAUM - October, 2011

Change the Weather History Date:

Wednesday, October 5, 2011

  Actual Average Record
Temperature  
Mean Temperature 68 °F -  
Max Temperature 82 °F 64 °F 82 °F (2007)
Min Temperature 55 °F 41 °F 30 °F (2004)
Cooling Degree Days 4    
Growing Degree Days 18 (Base 50)    
Moisture  
Dew Point 44 °F    
Average Humidity 44    
Maximum Humidity 63    
Minimum Humidity 26    
Precipitation  
Precipitation 0.00 in - - ()
Sea Level Pressure  
Sea Level Pressure 30.11 in    
Wind  
Wind Speed 7 mph (SSE)    
Max Wind Speed 15 mph    
Max Gust Speed 21 mph    
Visibility 10 miles    
Events      
Averages and records for this station are not official NWS values.
T = Trace of Precipitation, MM = Missing Value Source: NWS Daily Summary

Daily Weather History Graph

Daily Weather History Graph

Search for Another Location

Airport or City:

Trip Planner

Search our weather history database for the weather conditions in past years. The results will help you decide how hot, cold, wet, or windy it might be!

Date:

Astronomy

Oct. 05, 2011 Rise Set
Actual Time 7:13 AM CDT 6:45 PM CDT
Civil Twilight 6:45 AM CDT 7:14 PM CDT
Nautical Twilight 6:11 AM CDT 7:47 PM CDT
Astronomical Twilight 5:38 AM CDT 8:21 PM CDT
Moon 3:36 PM CDT (10/5) 12:49 AM CDT (10/5)
Length of Visible Light 12h 29m
Length of Day
11h 32m
Waxing Gibbous, 66% of the Moon is Illuminated
Oct 5
Waxing Gibbous
Oct 11
Full
Oct 19
Last Quarter
Oct 26
New
Nov 2
First Quarter

Hourly Weather History & Observations

Time (CDT) Temp. Dew Point Humidity Pressure Visibility Wind Dir Wind Speed Gust Speed Precip Events Conditions
12:15 AM 62.6 °F 39.2 °F 42% 30.11 in 10.0 mi SSE 6.9 mph - N/A   Clear
12:36 AM 60.8 °F 39.2 °F 45% 30.11 in 10.0 mi SSE 5.8 mph - N/A   Clear
12:56 AM 60.8 °F 41.0 °F 48% 30.11 in 10.0 mi SSE 4.6 mph - N/A   Clear
1:15 AM 60.8 °F 41.0 °F 48% 30.11 in 10.0 mi SE 4.6 mph - N/A   Clear
1:36 AM 57.2 °F 41.0 °F 55% 30.12 in 10.0 mi SE 4.6 mph - N/A   Clear
2:15 AM 59.0 °F 41.0 °F 51% 30.11 in 10.0 mi SSE 6.9 mph - N/A   Clear
2:36 AM 59.0 °F 41.0 °F 51% 30.11 in 10.0 mi SSE 6.9 mph - N/A   Clear
2:56 AM 59.0 °F 41.0 °F 51% 30.11 in 10.0 mi SSE 4.6 mph - N/A   Clear
3:15 AM 59.0 °F 41.0 °F 51% 30.11 in 10.0 mi South 5.8 mph - N/A   Clear
3:36 AM 59.0 °F 41.0 °F 51% 30.11 in 10.0 mi SSE 5.8 mph - N/A   Clear
3:56 AM 57.2 °F 41.0 °F 55% 30.11 in 10.0 mi SSE 4.6 mph - N/A   Clear
4:15 AM 55.4 °F 41.0 °F 58% 30.11 in 10.0 mi SSE 4.6 mph - N/A   Clear
4:56 AM 57.2 °F 42.8 °F 59% 30.12 in 10.0 mi SSE 5.8 mph - N/A   Clear
5:15 AM 57.2 °F 42.8 °F 59% 30.12 in 10.0 mi SSE 5.8 mph - N/A   Clear
5:36 AM 55.4 °F 42.8 °F 63% 30.12 in 10.0 mi SSE 6.9 mph - N/A   Clear
5:56 AM 55.4 °F 42.8 °F 63% 30.12 in 10.0 mi SSE 6.9 mph - N/A   Clear
6:15 AM 55.4 °F 42.8 °F 63% 30.13 in 10.0 mi SSE 6.9 mph - N/A   Clear
6:36 AM 55.4 °F 42.8 °F 63% 30.13 in 10.0 mi South 6.9 mph - N/A   Clear
6:56 AM 55.4 °F 42.8 °F 63% 30.13 in 10.0 mi SSE 8.1 mph - N/A   Clear
7:16 AM 55.4 °F 42.8 °F 63% 30.14 in 10.0 mi SSE 8.1 mph - N/A   Clear
7:36 AM 55.4 °F 42.8 °F 63% 30.14 in 10.0 mi SSE 4.6 mph - N/A   Clear
7:55 AM 55.4 °F 42.8 °F 63% 30.14 in 10.0 mi SSE 4.6 mph - N/A   Clear
8:16 AM 57.2 °F 42.8 °F 59% 30.15 in 10.0 mi SSE 5.8 mph - N/A   Clear
8:35 AM 57.2 °F 42.8 °F 59% 30.15 in 10.0 mi SSE 6.9 mph - N/A   Clear
8:55 AM 60.8 °F 42.8 °F 52% 30.15 in 10.0 mi South 5.8 mph - N/A   Clear
9:16 AM 62.6 °F 44.6 °F 52% 30.15 in 10.0 mi South 5.8 mph - N/A   Clear
9:35 AM 64.4 °F 44.6 °F 49% 30.15 in 10.0 mi South 6.9 mph - N/A   Clear
9:56 AM 66.2 °F 44.6 °F 46% 30.15 in 10.0 mi South 8.1 mph - N/A   Clear
10:35 AM 69.8 °F 44.6 °F 40% 30.15 in 10.0 mi South 6.9 mph - N/A   Clear
10:56 AM 71.6 °F 44.6 °F 38% 30.15 in 10.0 mi South 6.9 mph - N/A   Clear
11:16 AM 73.4 °F 44.6 °F 36% 30.15 in 10.0 mi South 6.9 mph - N/A   Clear
11:35 AM 75.2 °F 44.6 °F 34% 30.14 in 10.0 mi South 6.9 mph - N/A   Clear
11:56 AM 77.0 °F 46.4 °F 34% 30.14 in 10.0 mi South 6.9 mph - N/A   Clear
12:16 PM 78.8 °F 46.4 °F 32% 30.13 in 10.0 mi South 11.5 mph - N/A   Clear
12:35 PM 80.6 °F 44.6 °F 28% 30.13 in 10.0 mi SSW 10.4 mph - N/A   Clear
12:56 PM 80.6 °F 46.4 °F 30% 30.12 in 10.0 mi South 10.4 mph - N/A   Clear
1:16 PM 80.6 °F 44.6 °F 28% 30.12 in 10.0 mi SSW 9.2 mph 17.3 mph N/A   Clear
1:35 PM 82.4 °F 44.6 °F 26% 30.11 in 10.0 mi South 12.7 mph 17.3 mph N/A   Clear
2:35 PM 82.4 °F 44.6 °F 26% 30.09 in 10.0 mi South 15.0 mph 20.7 mph N/A   Clear
2:56 PM 82.4 °F 44.6 °F 26% 30.09 in 10.0 mi South 13.8 mph 17.3 mph N/A   Clear
3:15 PM 82.4 °F 44.6 °F 26% 30.08 in 10.0 mi South 12.7 mph 16.1 mph N/A   Clear
3:36 PM 82.4 °F 44.6 °F 26% 30.08 in 10.0 mi SSE 10.4 mph 17.3 mph N/A   Clear
3:56 PM 82.4 °F 46.4 °F 28% 30.07 in 10.0 mi SSE 10.4 mph 16.1 mph N/A   Clear
4:15 PM 82.4 °F 44.6 °F 26% 30.07 in 10.0 mi South 12.7 mph 16.1 mph N/A   Clear
4:55 PM 82.4 °F 44.6 °F 26% 30.06 in 10.0 mi SSE 8.1 mph - N/A   Clear
5:15 PM 80.6 °F 44.6 °F 28% 30.06 in 10.0 mi SSE 8.1 mph - N/A   Clear
5:36 PM 80.6 °F 42.8 °F 26% 30.06 in 10.0 mi SSE 10.4 mph 16.1 mph N/A   Clear
5:56 PM 78.8 °F 44.6 °F 30% 30.06 in 10.0 mi SSE 8.1 mph - N/A   Clear
6:15 PM 77.0 °F 44.6 °F 32% 30.06 in 10.0 mi SSE 6.9 mph - N/A   Clear
6:36 PM 75.2 °F 44.6 °F 34% 30.06 in 10.0 mi SE 6.9 mph - N/A   Clear
6:56 PM 73.4 °F 44.6 °F 36% 30.07 in 10.0 mi SE 5.8 mph - N/A   Clear
7:15 PM 71.6 °F 44.6 °F 38% 30.07 in 10.0 mi SSE 6.9 mph - N/A   Clear
7:36 PM 71.6 °F 44.6 °F 38% 30.07 in 10.0 mi SSE 5.8 mph - N/A   Clear
7:55 PM 69.8 °F 44.6 °F 40% 30.07 in 10.0 mi SE 5.8 mph - N/A   Clear
8:16 PM 69.8 °F 44.6 °F 40% 30.07 in 10.0 mi SE 5.8 mph - N/A   Clear
8:35 PM 64.4 °F 44.6 °F 49% 30.08 in 10.0 mi SE 4.6 mph - N/A   Clear
9:15 PM 62.6 °F 44.6 °F 52% 30.09 in 10.0 mi SE 6.9 mph - N/A   Clear
9:36 PM 66.2 °F 46.4 °F 49% 30.09 in 10.0 mi SE 6.9 mph - N/A   Clear
9:56 PM 66.2 °F 46.4 °F 49% 30.09 in 10.0 mi SSE 8.1 mph - N/A   Clear
10:15 PM 66.2 °F 46.4 °F 49% 30.09 in 10.0 mi SSE 5.8 mph - N/A   Clear
10:36 PM 64.4 °F 44.6 °F 49% 30.09 in 10.0 mi SSE 6.9 mph - N/A   Clear
10:55 PM 64.4 °F 46.4 °F 52% 30.09 in 10.0 mi SSE 5.8 mph - N/A   Clear
11:15 PM 64.4 °F 44.6 °F 49% 30.09 in 10.0 mi SSE 6.9 mph - N/A   Clear
11:36 PM 62.6 °F 44.6 °F 52% 30.09 in 10.0 mi SSE 6.9 mph - N/A   Clear
11:56 PM 62.6 °F 44.6 °F 52% 30.09 in 10.0 mi SSE 8.1 mph - N/A   Clear